Location: Albany
(35.0170°S, 117.8920°E)
Time: 01:39:40
(UTC+08:00)

ISS - Visible Passes

Search period start: 26 November 2020 00:00
Search period end: 06 December 2020 00:00
Orbit: 418 x 421 km, 51.6° (Epoch: 25 November)

Date Brightness Start Highest point End Pass type
(mag) Time Alt. Az. Time Alt. Az. Time Alt. Az.
26 Nov -1.0 02:36:54 11° ENE 02:36:54 11° ENE 02:37:55 10° ENE visible
26 Nov -3.4 04:09:52 10° WNW 04:13:11 58° SW 04:16:35 10° SE visible
27 Nov -3.7 03:24:20 33° NW 03:25:42 75° NE 03:29:08 10° SE visible
28 Nov -2.6 02:38:43 36° ENE 02:38:43 36° ENE 02:41:30 10° ESE visible
28 Nov -1.8 04:12:30 10° W 04:15:11 21° SSW 04:17:55 10° SSE visible
29 Nov -0.8 01:53:01 13° E 01:53:01 13° E 01:53:32 10° ESE visible
29 Nov -2.5 03:25:58 21° W 03:27:33 33° SW 03:30:43 10° SSE visible
30 Nov -3.3 02:40:12 56° SSW 02:40:12 56° SSW 02:43:23 10° SE visible
30 Nov -0.9 04:16:39 10° SW 04:17:25 11° SSW 04:18:11 10° S visible
01 Dec -1.5 01:54:21 24° SE 01:54:21 24° SE 01:55:54 10° SE visible
01 Dec -1.2 03:27:37 10° WSW 03:29:38 15° SSW 03:31:39 10° S visible
02 Dec -1.8 02:41:24 20° SW 02:41:54 21° SSW 02:44:37 10° SSE visible
03 Dec -1.5 01:55:26 25° S 01:55:26 25° S 01:57:23 10° SSE visible
04 Dec -0.5 01:09:25 14° SE 01:09:25 14° SE 01:10:00 10° SE visible
04 Dec -0.8 02:43:17 10° SW 02:44:02 11° SSW 02:44:47 10° S visible
05 Dec -1.0 01:56:16 15° SSW 01:56:16 15° SSW 01:58:14 10° S visible
